www.pogodaiklimat.ru
Время
(UTC), дата
21 13.10
00 14.10
03 14.10
06 14.10
09 14.10
12 14.10
15 14.10
18 14.10
21 14.10
00 15.10
03 15.10
06 15.10
09 15.10
12 15.10
15 15.10
18 15.10
21 15.10
00 16.10
03 16.10
06 16.10
09 16.10
12 16.10
15 16.10
18 16.10
21 16.10
00 17.10
03 17.10
06 17.10
09 17.10
12 17.10
15 17.10
18 17.10
21 17.10
00 18.10
03 18.10
06 18.10
09 18.10
12 18.10
15 18.10
18 18.10
21 18.10
00 19.10
03 19.10
06 19.10
09 19.10
12 19.10
15 19.10
18 19.10
21 19.10
00 20.10
03 20.10
06 20.10
09 20.10
12 20.10
15 20.10
18 20.10
Ветер
(напр.,м/с)
Видим. Явления Облачность Т
(С)
Тd
(С)
f
(%)
Тe
(С)
Тes
(С)
Комфортность P
(гПа)
Po
(гПа)
Тmin
(С)
Tmax
(С)
R
(мм)
R24
(мм)
S
(см)
З 1 20 км 9/4 600 м
[Sc Ac trans]
+5.7 +2.2 78 +5 +5 тепло 1006.2 990.2
З 1 20 км 10/10 800 м
[Sc]
+6.0 +4.6 91 +5 +5 тепло 1007.2 991.3
З 2 20 км {дождь} 10/10 500 м
[Sc]
+6.6 +5.2 91 +4 +4 тепло 1008.8 992.9 +4.2 3
СЗ 3 20 км {дождь} 10/10 540 м
[Sc]
+6.8 +4.8 87 +4 +4 тепло 1011.3 995.3
СЗ 3 20 км 9/9 1050 м
[Sc]
+7.5 +1.8 67 +5 +5 по сезону 1012.1 996.1
З 3 20 км 8/6 600 м
[Sc Ac trans]
+6.8 +1.3 68 +4 +4 по сезону 1011.7 995.7
Ю 1 20 км 10/10 450 м
[Sc]
+4.4 +0.6 76 +3 +3 по сезону 1010.3 994.2 +8.0 0.0
СВ 2 20 км 8/8 600 м
[Sc]
+3.2 +0.8 84 0 0 по сезону 1009.1 993.0
СВ 3 20 км {дождь} 8/6 600 м
[Sc Ac trans]
+2.4 -1.1 78 -2 -2 по сезону 1007.9 991.7
С 3 20 км {дождь} 10/10 660 м
[Sc]
+2.0 -0.9 81 -2 -2 по сезону 1009.6 993.4
С 3 20 км 6/6 600 м
[Sc]
+0.9 -1.8 82 -4 -4 прохладно 1012.8 996.5 +0.8 0.0
С 3 20 км в посл. час снег 10/10 930 м
[Sc]
+1.5 -1.8 79 -3 -3 по сезону 1015.9 999.5 +0.4
СЗ 6
{10}
20 км 10/10 1000 м
[Sc]
+2.9 -4.1 60 -2 -2 прохладно 1018.8 1002.5
СЗ 4 20 км в посл. час дождь 9/9 1020 м
[Sc]
+2.9 -1.8 71 -2 -1 прохладно 1020.7 1004.3
СЗ 2 20 км н/о +2.3 -2.0 73 -1 -1 по сезону 1022.5 1006.1 +3.3 0.0
СЗ 2 20 км 8/8 600 м
[Sc]
+1.3 -2.1 78 -2 -2 по сезону 1024.7 1008.2
СЗ 2 20 км 10/10 900 м
[Sc]
+0.3 -2.2 83 -3 -3 по сезону 1026.6 1010.0
штиль 0 20 км 8/4 600 м
[Sc Ac trans]
+0.3 -0.8 92 -1 -1 по сезону 1027.4 1010.8
штиль 0 20 км н/о +0.5 -0.6 92 -1 -1 по сезону 1028.5 1011.9 -1.1
Ю 1 20 км 10/10 630 м
[Sc]
+1.6 -0.4 87 -0 -0 по сезону 1029.0 1012.4
Ю 3 20 км 10/10 720 м
[Sc]
+2.8 -1.6 73 -1 -1 по сезону 1028.5 1012.0
ЮВ 2 10 км слаб. дождь 10/8 300 м
[Frnb As op]
+1.1 +0.1 93 -2 -2 прохладно 1026.7 1010.1
ЮВ 3 20 км {дождь} 10/10 300 м
[Sc]
+1.4 +0.2 92 -3 -3 прохладно 1024.1 1007.6 +3.1 0.7
ЮВ 4 20 км {снег, дождь} 10/10 600 м
[Sc]
+1.3 -0.2 90 -4 -4 прохладно 1020.3 1003.9
ЮВ 3 20 км 10/10 700 м
[Sc]
+1.7 +0.2 90 -3 -3 по сезону 1018.1 1001.7
ЮВ 2 20 км 10/10 660 м
[Sc]
+2.4 +0.8 89 -1 -1 по сезону 1015.1 998.8
ЮВ 2 20 км 10/10 540 м
[Sc]
+3.2 +1.6 89 0 0 по сезону 1013.3 997.1 +1.2 0.1
В 1 20 км 10/10 540 м
[Sc]
+3.9 +2.1 88 +2 +2 по сезону 1012.8 996.6
СВ 2 4000 м слаб. морось 10/10 270 м
[St]
+4.1 +3.0 93 +1 +1 по сезону 1013.0 996.8
СВ 2 4000 м дымка 10/10 360 м
[St]
+4.0 +2.4 89 +1 +1 по сезону 1014.1 997.9
В 3 20 км {морось} 10/10 300 м
[St]
+3.2 +2.0 92 -1 -1 по сезону 1014.6 998.4 +4.5 0.0
В 3 10 км слаб. дождь {морось} 10/10 300 м
[Sc]
+2.8 +1.6 92 -1 -1 по сезону 1014.0 997.8
В 3 10 км слаб. дождь 10/10 300 м
[Frnb Ns]
+2.2 +1.3 94 -2 -2 по сезону 1013.0 996.7
В 3 10 км слаб. морось {дождь} 10/10 300 м
[St]
+1.8 +0.7 92 -3 -3 по сезону 1013.0 996.7
СВ 3 4000 м морось 10/10 300 м
[St]
+1.3 +0.3 93 -3 -3 по сезону 1014.0 997.7 +1.3 10
В 3 20 км {морось} 10/10 750 м
[Sc]
+1.3 +0.1 92 -3 -3 по сезону 1015.4 999.0 +1.1
В 2 20 км 10/10 800 м
[Sc]
+1.6 +0.5 92 -2 -2 по сезону 1017.2 1000.8
В 3 20 км 10/10 720 м
[Sc]
+1.8 +0.7 92 -3 -3 прохладно 1018.1 1001.7
В 2 18 км 10/10 660 м
[Sc]
+1.9 +1.0 94 -2 -2 по сезону 1019.3 1002.9 +1.9 0.4
ЮВ 3 10 км слаб. морось 10/10 270 м
[St]
+1.9 +1.1 94 -3 -3 по сезону 1019.9 1003.5
ЮВ 2 2000 м дымка 10/10 240 м
[St]
+1.9 +1.0 94 -2 -2 по сезону 1020.3 1003.9
ЮВ 3 1000 м дымка 10/10 240 м
[St]
+2.1 +1.4 95 -2 -2 по сезону 1020.5 1004.1
ЮВ 3 10 км слаб. морось 10/10 240 м
[St]
+2.2 +1.5 95 -2 -2 по сезону 1020.7 1004.3 +1.9 0.1
ЮВ 3 10 км слаб. морось 10/10 240 м
[St]
+2.7 +2.0 95 -2 -2 по сезону 1021.1 1004.7
Ю 3 4000 м дымка 10/10 240 м
[St]
+4.1 +3.3 95 0 0 по сезону 1020.6 1004.3
Ю 3 20 км {морось} 10/10 330 м
[Sc]
+5.4 +4.5 94 +2 +2 по сезону 1019.9 1003.7
Ю 3 10 км слаб. дождь 10/10 270 м
[Sc]
+6.1 +5.2 94 +3 +3 по сезону 1019.2 1003.1 +6.2 0.7
Ю 3 10 км {дождь} 10/10 240 м
[Sc]
+6.8 +5.7 93 +4 +4 тепло 1018.3 1002.2
Ю 4 4000 м дымка 10/4 600 м
[Sc Ac und]
+8.5 +7.3 92 +5 +5 тепло 1017.0 1001.1
Ю 4 20 км 10/10 960 м
[Sc]
+9.8 +8.2 90 +7 +7 тепло 1015.5 999.7
ЮЗ 2 20 км 10/10 450 м
[Sc]
+9.8 +8.2 90 +8 +8 тепло 1015.4 999.6 +6.1 0.4
ЮЗ 2 10 км слаб. дождь 10/6 300 м
[Frnb As op]
+9.4 +8.3 93 +8 +8 тепло 1015.9 1000.0
З 2 20 км в посл. час дождь 10/8 400 м
[Frnb As op]
+10.5 +9.3 92 +9 +9 тепло 1017.2 1001.4
З 2 20 км {дождь} 9/8 600 м
[Sc Ac trans Ci fib]
+11.6 +8.1 79 +11 +11 тепло 1017.7 1001.9
Ю 1 20 км 3/3 600 м
[Sc]
+8.2 +7.0 92 +7 +7 тепло 1018.9 1002.9 +12.2 3
ЮЗ 2 200 м туман ясно +5.4 +4.5 94 +3 +3 тепло 1019.4 1003.2
Местоположение метеостанции Вологда (Вологодская область, Россия): широта 59.32 долгота 39.93 высота над уровнем моря 130 м.
В архиве по умолчанию представлена погода в Вологде за последнюю неделю. Архивные данные за месяц целиком и за предыдущие месяцы, начиная с января 2011 года, Вы можете получить, выбрав интересующий диапазон дат из раскрывающегося списка и нажав кнопку "Найти!".
*Определитесь, кто Вы:
Внимание! Время в таблицах - всемирное. Для получения местного времени необходимо прибавить поправку, которая равна 3 ч.
Смотрите также архив погоды в соседних городах и на ближайших метеорологических станциях:
Партнеры нашего сайта:      
Пояснения к столбцам:
  • Ветер - указаны скорость ветра в м/с - средняя за 10 мин, порывы в срок и между сроками (в фигурных скобках) и направление, откуда дует ветер: С - северный,
  • СВ - северо-восточный, В - восточный, ЮВ - юго-восточный, Ю - южный, ЮЗ - юго-западный, З - западный, СЗ - северо-западный.
  • Видимость - горизонтальная дальность видимости в метрах или километрах. При видимости от 1 до 10 км при отсутствии осадков обычно наблюдается дымка, при ухудшении видимости до 1 км и менее - туман. В сухую погоду видимость может ухудшаться дымом, пылью или мглою.
  • Явления - указаны атмосферные явления, наблюдавшиеся в срок или в последний час перед сроком; фигурными скобками обозначены явления, наблюдавшиеся между сроками (за 1-3 часа до срока); квадратными скобками обозначены град или гололедные отложения с указанием их диаметра в мм.
  • Облачность - указаны через наклонную черту общая и нижняя облачность в баллах и высота нижней границы облаков в метрах; квадратными скобками обозначены формы облаков: Ci - перистые, Cs - перисто-слоистые, Cc - перисто-кучевые, Ac - высококучевые, As - высокослоистые, Sc - слоисто-кучевые, Ns - слоисто-дождевые, Cu - кучевые, Cb - кучево-дождевые. Подробнее классификацию облаков см. в Атласе облаков (PDF).
  • T - Температура воздуха - температура, измеренная на высоте 2 м над землей.
  • Td - Температура точки росы - температура, при понижении до которой содержащийся в воздухе водяной пар достигнет насыщения.
  • f - Относительная влажность воздуха - влажноcть воздуха, измеренная на высоте 2 м над землей.
  • Te - Эффективная температура - температура, которую ощущает одетый по сезону человек в тени. Характеристика душности погоды. При расчете учитывается влияние влажности воздуха и скорости ветра на теплоощущения человека.
  • Tes - Эффективная температура на солнце - температура, которую ощущает человек, с поправкой на солнечный нагрев. Характеристика знойности погоды. Зависит от высоты солнца над горизонтом, облачности и скорости ветра. Ночью, в пасмурную погоду, а также при ветре 12 м/с и более поправка равна нулю.
  • P - Атмосферное давление - приведенное к уровню моря атмосферное давление.
  • Po - Атмосферное давление - измеренное на уровне метеостанции атмосферное давление.
  • Tmin - Минимальная температура - минимум температуры воздуха на высоте 2 м над землей.
  • Tmax - Максимальная температура - максимум температуры воздуха на высоте 2 м над землей.
  • R - Количество осадков - Количество выпавших осадков за период времени, мм. При наведении курсора мыши на число - период времени, за который выпало указанное количество осадков.
  • R24 - Количество осадков - Количество выпавших осадков за 24 часа, мм.
  • S - Снежный покров - Высота снежного покрова, см. При наведении курсора мыши на число - состояние снежного покрова и степень покрытия местности в баллах.